TimeCST,TemperatureF,Dew PointF,Humidity,Sea Level PressureIn,VisibilityMPH,Wind Direction,Wind SpeedMPH,Gust SpeedMPH,PrecipitationIn,Events,Conditions,WindDirDegrees,DateUTC
12:15 AM,30.2,26.6,86,30.09,10.0,SSE,11.5,-,N/A,,Overcast,150,2012-12-06 06:15:00
12:35 AM,30.2,26.6,86,30.09,10.0,SSE,11.5,-,N/A,,Overcast,160,2012-12-06 06:35:00
12:55 AM,32.0,26.6,80,30.09,10.0,SSE,13.8,18.4,N/A,,Overcast,160,2012-12-06 06:55:00
1:15 AM,30.2,26.6,86,30.07,10.0,SSE,15.0,-,N/A,,Overcast,150,2012-12-06 07:15:00
1:35 AM,30.2,28.4,93,30.05,10.0,SE,11.5,18.4,N/A,,Overcast,140,2012-12-06 07:35:00
1:55 AM,30.2,28.4,93,30.04,10.0,SE,12.7,18.4,N/A,,Overcast,140,2012-12-06 07:55:00
2:15 AM,30.2,28.4,93,30.03,10.0,SE,12.7,17.3,N/A,,Overcast,140,2012-12-06 08:15:00
2:35 AM,30.2,28.4,93,30.02,10.0,SE,12.7,17.3,N/A,,Overcast,130,2012-12-06 08:35:00
2:55 AM,32.0,28.4,87,30.01,10.0,SSE,9.2,16.1,N/A,,Overcast,160,2012-12-06 08:55:00
3:15 AM,32.0,28.4,87,29.99,10.0,SE,13.8,-,N/A,,Overcast,140,2012-12-06 09:15:00
3:35 AM,32.0,28.4,87,29.98,10.0,SSE,11.5,17.3,N/A,,Overcast,150,2012-12-06 09:35:00
3:55 AM,32.0,28.4,87,29.96,10.0,SSE,11.5,19.6,N/A,,Mostly Cloudy,150,2012-12-06 09:55:00
4:15 AM,32.0,28.4,87,29.95,10.0,SSE,9.2,-,N/A,,Overcast,150,2012-12-06 10:15:00
4:35 AM,32.0,28.4,87,29.97,10.0,SSW,6.9,-,N/A,,Overcast,200,2012-12-06 10:35:00
5:45 AM,33.8,28.4,81,29.95,10.0,South,10.4,18.4,N/A,,Overcast,190,2012-12-06 11:45:00
6:50 AM,33.8,28.4,81,29.92,10.0,South,10.4,-,N/A,,Overcast,170,2012-12-06 12:50:00
8:50 AM,35.6,30.2,81,29.91,10.0,South,10.4,-,N/A,,Overcast,170,2012-12-06 14:50:00
9:50 AM,35.6,30.2,81,29.89,10.0,South,12.7,-,N/A,,Overcast,180,2012-12-06 15:50:00
10:45 AM,35.6,32.0,87,29.82,10.0,SSE,5.8,-,N/A,,Overcast,160,2012-12-06 16:45:00
11:45 AM,39.2,33.8,81,29.83,10.0,SSW,10.4,17.3,N/A,,Overcast,200,2012-12-06 17:45:00
11:50 AM,39.2,33.8,81,29.83,10.0,SSW,10.4,17.3,N/A,,Overcast,200,2012-12-06 17:50:00
12:55 PM,39.2,33.8,81,29.80,10.0,SSW,12.7,17.3,N/A,,Overcast,200,2012-12-06 18:55:00
1:55 PM,42.8,33.8,70,29.78,10.0,SSW,11.5,-,N/A,,Overcast,210,2012-12-06 19:55:00
2:50 PM,42.8,35.6,76,29.78,10.0,SW,10.4,-,N/A,,Scattered Clouds,220,2012-12-06 20:50:00
3:45 PM,41.0,35.6,81,29.79,10.0,WSW,8.1,-,N/A,,Mostly Cloudy,250,2012-12-06 21:45:00
4:45 PM,39.2,37.4,93,29.80,10.0,WSW,6.9,-,N/A,,Overcast,250,2012-12-06 22:45:00
5:45 PM,39.2,37.4,93,29.82,10.0,WSW,8.1,-,N/A,,Overcast,250,2012-12-06 23:45:00
6:50 PM,39.2,35.6,87,29.84,10.0,WNW,17.3,24.2,N/A,,Overcast,300,2012-12-07 00:50:00
8:50 PM,30.2,28.4,93,29.88,10.0,WSW,5.8,-,N/A,,Clear,250,2012-12-07 02:50:00
9:15 PM,30.2,28.4,93,29.88,10.0,SW,4.6,-,N/A,,Clear,230,2012-12-07 03:15:00
9:35 PM,32.0,30.2,93,29.89,10.0,West,6.9,-,N/A,,Clear,260,2012-12-07 03:35:00
9:45 PM,30.2,28.4,93,29.89,10.0,West,5.8,-,N/A,,Scattered Clouds,260,2012-12-07 03:45:00
9:55 PM,30.2,30.2,100,29.89,10.0,West,5.8,-,N/A,,Scattered Clouds,260,2012-12-07 03:55:00
10:15 PM,32.0,30.2,93,29.89,10.0,West,4.6,-,N/A,,Mostly Cloudy,270,2012-12-07 04:15:00
10:35 PM,32.0,30.2,93,29.88,10.0,West,4.6,-,N/A,,Scattered Clouds,260,2012-12-07 04:35:00
10:55 PM,32.0,30.2,93,29.88,10.0,WNW,5.8,-,N/A,,Clear,300,2012-12-07 04:55:00
11:15 PM,32.0,30.2,93,29.88,10.0,WNW,6.9,-,N/A,,Clear,290,2012-12-07 05:15:00
11:35 PM,32.0,30.2,93,29.89,10.0,WNW,8.1,-,N/A,,Clear,300,2012-12-07 05:35:00
11:55 PM,32.0,30.2,93,29.89,10.0,WNW,6.9,-,N/A,,Clear,300,2012-12-07 05:55:00